APRIZESAT 9

Last updated on Tue Sep 22 2026 00:03:52 GMT+0000 (Coordinated Universal Time)

1 40018U 14033J 26264.58478846 .00000354 00000+0 59639-4 0 9991 2 40018 97.9196 35.5059 0064708 250.0071 109.4162 14.74310665657764
UTC large
Height (km)
Speed (km/s)
/
Latitude / Longitude
Inclination (degrees)
Orbital Period (minutes)
Azimuth
Elevation
Range (km)
Doppler Factor

Next 0 passes for location: London (51.5072 / 0.1276)

No passes found over London.
APRIZESAT 9